Hourly Data Report for January 20, 2022

TORONTO CITY
ONTARIO
Current Station Operator: ECCC - MSC

43°40'00.000" N
79°24'00.000" W
112.50 m
6158355
71508
XTO

Download Data

Hourly Data (January 2022)
Hourly Data Report for January 20, 2022
TIME
LST
Temp Definition
°C
Dew Point Definition
°C
Rel Hum Definition
%
Precip. Amount Definition
mm

Wind Dir Definition
10's deg

Wind Spd Definition
km/h
Visibility Definition
km
Stn Press Definition
kPa
Hmdx Definition


Wind Chill Definition


Weather Definition


00:00 -5.6 -12.3 59 0.0       100.54     LegendNANA
01:00 -7.3 -14.1 58 0.0       100.61     LegendNANA
02:00 -8.4 -13.9 64 0.0       100.84     LegendNANA
03:00 -11.2 -16.5 65 0.0       100.97     LegendNANA
04:00 -12.6 -17.5 67 0.0       101.04     LegendNANA
05:00 -13.6 -18.6 66 0.0       101.13     LegendNANA
06:00 -14.7 -20.0 64 0.0       101.27     LegendNANA
07:00 -15.3 -20.5 64 0.0       101.39     LegendNANA
08:00 -16.1 -21.3 64 0.0       101.50     LegendNANA
09:00 -16.4 -22.3 60 0.0       101.60     LegendNANA
10:00 -15.2 -21.4 59 0.0       101.66     LegendNANA
11:00 -14.1 -20.9 57 0.0       101.74     LegendNANA
12:00 -13.2 -20.2 56 0.0       101.75     LegendNANA
13:00 -12.4 -20.3 52 0.0       101.73     LegendNANA
14:00 -11.9 -20.4 49 0.0       101.72     LegendNANA
15:00 -11.6 -19.6 51 0.0       101.72     LegendNANA
16:00 -11.6 -19.6 52 0.0       101.76     LegendNANA
17:00 -12.2 -19.7 54 0.0       101.82     LegendNANA
18:00 -12.9 -19.8 56 0.0       101.90     LegendNANA
19:00 -13.2 -19.4 60 0.0       101.97     LegendNANA
20:00 -13.5 -19.1 63 0.0       102.02     LegendNANA
21:00 -13.9 -19.4 63 0.0       102.05     LegendNANA
22:00 -14.2 -19.2 66 0.0       102.11     LegendNANA
23:00 -14.2 -19.0 67 0.0       102.12     LegendNANA

Notes on Data Quality.

Legend

  • E = Estimated
  • M = Missing
  • NA = Not Available*
  • [empty] = Indicates an unobserved value
Date modified: